TimeHST,TemperatureF,Dew PointF,Humidity,Sea Level PressureIn,VisibilityMPH,Wind Direction,Wind SpeedMPH,Gust SpeedMPH,PrecipitationIn,Events,Conditions,WindDirDegrees,DateUTC
12:53 AM,70.0,57.0,63,29.98,10.0,ESE,5.8,-,N/A,,Mostly Cloudy,110,2013-03-17 10:53:00
1:53 AM,70.0,57.0,63,29.97,10.0,SE,3.5,-,N/A,,Mostly Cloudy,130,2013-03-17 11:53:00
2:53 AM,72.0,57.9,61,29.96,10.0,SW,5.8,-,N/A,,Overcast,230,2013-03-17 12:53:00
3:53 AM,73.0,57.9,59,29.96,10.0,WSW,9.2,-,N/A,,Mostly Cloudy,250,2013-03-17 13:53:00
4:53 AM,72.0,57.0,59,29.94,10.0,SW,4.6,-,N/A,,Scattered Clouds,220,2013-03-17 14:53:00
5:53 AM,72.0,57.0,59,29.94,10.0,West,3.5,-,N/A,,Clear,280,2013-03-17 15:53:00
6:53 AM,71.1,57.9,63,29.95,10.0,East,5.8,-,N/A,,Scattered Clouds,90,2013-03-17 16:53:00
7:53 AM,71.1,59.0,66,29.98,10.0,East,5.8,-,0.00,,Clear,100,2013-03-17 17:53:00
8:53 AM,73.9,57.9,57,30.00,10.0,SSW,3.5,-,0.00,,Clear,210,2013-03-17 18:53:00
9:53 AM,75.0,57.9,55,30.01,10.0,Variable,3.5,-,N/A,,Clear,0,2013-03-17 19:53:00
10:53 AM,77.0,59.0,54,30.01,10.0,WSW,5.8,-,N/A,,Clear,250,2013-03-17 20:53:00
11:53 AM,77.0,61.0,58,30.00,10.0,WNW,11.5,-,N/A,,Partly Cloudy,300,2013-03-17 21:53:00
12:53 PM,77.0,57.9,52,29.98,10.0,NW,10.4,-,N/A,,Mostly Cloudy,310,2013-03-17 22:53:00
1:53 PM,78.1,57.9,50,29.95,10.0,NW,10.4,-,N/A,,Partly Cloudy,320,2013-03-17 23:53:00
2:53 PM,77.0,57.9,52,29.93,10.0,NNW,12.7,-,N/A,,Mostly Cloudy,340,2013-03-18 00:53:00
3:53 PM,75.9,57.0,52,29.93,10.0,NNW,9.2,-,N/A,,Mostly Cloudy,340,2013-03-18 01:53:00
4:53 PM,77.0,55.9,48,29.94,10.0,NW,9.2,-,N/A,,Partly Cloudy,320,2013-03-18 02:53:00
5:53 PM,75.9,55.0,48,29.96,10.0,NW,9.2,-,N/A,,Clear,320,2013-03-18 03:53:00
6:53 PM,73.0,57.0,57,29.97,10.0,NW,6.9,-,N/A,,Clear,320,2013-03-18 04:53:00
7:53 PM,73.0,57.9,59,29.99,10.0,NNW,4.6,-,N/A,,Clear,330,2013-03-18 05:53:00
8:53 PM,71.1,59.0,66,30.01,10.0,NE,3.5,-,N/A,,Partly Cloudy,50,2013-03-18 06:53:00
9:53 PM,71.1,57.9,63,30.02,10.0,East,3.5,-,N/A,,Mostly Cloudy,80,2013-03-18 07:53:00
10:53 PM,70.0,59.0,68,30.02,10.0,Calm,Calm,-,N/A,,Scattered Clouds,0,2013-03-18 08:53:00
11:53 PM,70.0,57.9,65,30.01,10.0,Calm,Calm,-,N/A,,Overcast,0,2013-03-18 09:53:00